This is the latest recevied weather packets stored in our database for station/object OK2ILA-10. If no packets are shown the sender has not sent any weather packets the latest 10 day(s).
| Time | Temp. | Humidity | Pressure | Rain* | Wind** | Luminosity | Snow |
|---|---|---|---|---|---|---|---|
| 1777468597 | 10° C | 37% | 1025.9 hPa | - | - | - | - |
| 1777468593 | 10° C | 37% | 1025.9 hPa | - | - | - | - |
| 1777467993 | 9.44° C | 38% | 1025.8 hPa | - | - | - | - |
| 1777467396 | 11.11° C | 37% | 1025.9 hPa | - | - | - | - |
| 1777467392 | 11.11° C | 37% | 1025.9 hPa | - | - | - | - |
| 1777466797 | 10.56° C | 39% | 1025.8 hPa | - | - | - | - |
| 1777466792 | 10.56° C | 39% | 1025.8 hPa | - | - | - | - |
| 1777466196 | 10° C | 38% | 1025.8 hPa | - | - | - | - |
| 1777466192 | 10° C | 38% | 1025.8 hPa | - | - | - | - |
| 1777465596 | 11.11° C | 40% | 1025.9 hPa | - | - | - | - |
| 1777465592 | 11.11° C | 40% | 1025.9 hPa | - | - | - | - |
| 1777464996 | 10.56° C | 39% | 1025.9 hPa | - | - | - | - |
| 1777464992 | 10.56° C | 39% | 1025.9 hPa | - | - | - | - |
| 1777464395 | 10° C | 43% | 1025.9 hPa | - | - | - | - |
| 1777464391 | 10° C | 43% | 1025.9 hPa | - | - | - | - |
| 1777463796 | 10° C | 43% | 1026 hPa | - | - | - | - |
| 1777463791 | 10° C | 43% | 1026 hPa | - | - | - | - |
| 1777463195 | 10° C | 43% | 1025.9 hPa | - | - | - | - |
| 1777463191 | 10° C | 43% | 1025.9 hPa | - | - | - | - |
| 1777462595 | 10° C | 44% | 1025.8 hPa | - | - | - | - |
| 1777462591 | 10° C | 44% | 1025.8 hPa | - | - | - | - |
| 1777461995 | 8.89° C | 46% | 1025.9 hPa | - | - | - | - |
| 1777461991 | 8.89° C | 46% | 1025.9 hPa | - | - | - | - |
| 1777461395 | 10.56° C | 44% | 1026 hPa | - | - | - | - |
| 1777461391 | 10.56° C | 44% | 1026 hPa | - | - | - | - |
* Rain since midnight (hover to see other rain measurements)
** Current wind speed in m/s (hover to see current wind gust speed)